Vertical_Velocity
1 3 -2 2 2 1 1 -2 -1 -1 1 -2 -1 -3 -1 -1 2 -1 -2 -1 -1 -1 1 -2 2 -3 -2 -5 20 -5 2 5 -0 -5 3 0 -2 -5 -2 4 2 -13 8 1 0 -2 -4
0 -1 3 1 -1 4 1 2 0 -2 0 -1 -1 0 -3 2 -0 2 -1 1 -1 -3 -2 -1 -0 -3 -6 5 -0 -17 1 8 -4 -3 -3 1 3 -2 -3 -5 -13 7 -1 3 2 -3 -2
-1 -1 -0 1 6 -0 2 3 2 -1 1 1 -1 0 -2 -0 -3 0 0 -0 -1 2 -2 -3 -1 -4 -6 15 3 -8 -4 7 -2 -1 -0 2 2 -7 11 -1 -5 1 -1 2 -14 -1 -6
1 -1 -0 0 3 4 1 2 1 3 -0 1 -0 1 -2 -0 -2 -2 -2 0 -0 1 -0 -2 -5 -5 6 -5 -2 -2 -9 4 -1 -3 -1 -0 2 -1 -2 -2 1 -2 -2 -24 24 3 3
0 1 0 1 -3 2 4 2 3 2 2 0 0 0 1 -0 -2 -1 -3 1 -1 -1 -3 -4 -1 -7 3 -4 2 -4 1 1 -3 4 -2 -0 -1 3 -0 -3 3 -11 -15 -23 3 -0 5
3 2 1 0 -1 1 2 1 3 3 -1 0 2 1 0 -1 -2 -1 -2 -1 -1 -1 2 -6 4 -11 3 -1 1 -3 -3 -0 -2 0 -1 6 -3 -4 -9 -14 -40 21 5 7 -4 2 2
2 2 4 1 0 3 1 -1 3 1 1 3 0 1 2 -1 -0 -2 0 -3 -3 -3 -8 0 0 -2 2 -2 -2 -1 -4 -2 0 0 1 1 -12 -30 19 5 27 9 -6 2 1 8 -7
-6 3 4 5 3 2 2 4 -0 2 2 2 3 -1 0 2 1 -3 1 -3 -2 -6 -11 7 3 7 -18 4 1 -2 -4 -1 -5 1 2 -5 -45 25 15 5 3 -0 3 -11 10 2 -9
7 1 2 -2 10 6 2 3 2 1 3 3 4 -1 -0 2 -0 -1 5 -6 -5 -6 -17 11 6 -0 0 -8 2 6 -6 4 -2 -6 6 0 1 20 -4 6 -3 -5 -12 1 -2 4 4
2 3 3 6 -2 10 2 1 1 3 3 -5 4 -0 2 -1 3 -2 2 -2 -1 -9 -22 9 9 14 3 -4 -2 -3 -5 -1 -2 0 12 -14 24 -9 3 -7 2 -10 6 -5 2 -1 -11
1 7 3 -2 6 2 4 4 2 1 2 1 1 -0 4 -2 3 2 -1 -0 -0 -7 -31 -11 -4 -8 2 -4 -8 6 10 4 -2 5 2 -9 1 4 2 -23 6 -23 -14 -4 -1 35 5
-0 1 1 3 5 6 5 5 3 0 1 2 -5 3 3 -1 -2 1 6 -2 -2 1 -5 -10 -1 -5 -5 1 -3 -1 0 3 3 -1 -5 1 2 -12 -12 -1 5 6 -1 1 72 28 -18
1 -0 2 6 5 18 8 2 2 1 3 3 -8 5 1 -0 3 -2 1 -1 -4 6 2 -2 1 -1 -3 -3 3 2 -2 -1 3 2 2 9 -4 11 9 24 6 -6 0 9 22 47 47
0 4 4 6 0 10 21 6 3 1 2 3 -3 4 -2 -4 3 2 -0 -5 3 -1 1 5 2 -2 -6 2 -2 9 0 2 1 1 -2 -6 -12 -4 5 -6 3 -0 -5 43 -13 -3 -11
2 2 4 2 18 24 8 9 6 9 3 5 -3 -1 4 -7 3 -1 1 4 1 1 1 2 -0 -3 3 -1 3 1 -1 7 -2 -4 2 13 -10 5 -7 4 2 -4 -33 70 32 28 14
3 3 2 -3 7 10 7 8 4 7 4 3 -3 1 5 -5 -1 -1 -1 1 -1 -1 1 3 -3 1 -1 -3 -3 1 -2 4 -0 -3 5 16 14 6 5 11 -11 15 49 44 22 -4 -4
2 -1 -1 2 -0 31 1 10 1 17 -1 5 -2 -1 9 -1 -3 -2 5 2 2 -1 3 1 -3 -1 2 -5 -7 1 9 3 -8 1 8 20 1 -3 -14 -20 7 -3 21 -1 39 43 -1
0 5 5 2 11 1 3 4 -3 3 -2 -0 -1 -3 8 0 -4 4 3 1 -2 -0 2 -6 -1 2 2 -1 -3 3 -1 -6 2 3 13 -1 0 2 -8 -3 6 11 28 53 30 17 3
-1 -3 -1 7 28 0 6 -9 -2 -1 2 1 2 1 -1 1 -0 4 -1 2 -2 0 2 -3 -2 -3 4 -12 -10 0 -2 -2 2 10 16 0 20 -10 10 13 15 35 31 2 -5 -2 7
1 2 -5 9 15 4 2 31 15 1 7 1 -2 -3 -2 0 1 4 -1 2 2 0 1 -3 0 -1 -1 -2 -6 -2 1 -0 5 0 9 0 9 40 -4 17 8 5 2 1 1 3 3
-2 -3 1 4 -6 -0 -7 -2 40 8 -1 -2 1 0 7 4 0 3 -2 4 4 2 1 -3 1 -0 3 1 -9 1 -2 -5 -3 -2 7 6 49 31 2 -10 1 -1 -4 1 -4 0 2
-6 1 8 13 -5 -1 2 4 30 7 -3 -5 2 2 4 4 -1 4 -2 3 9 3 2 2 -1 2 -0 1 0 -11 -10 -0 3 7 -1 6 8 9 7 5 -2 -6 -8 -4 -6 -2 -6
-2 -2 16 2 3 -2 3 51 22 5 -2 4 0 6 0 4 2 -1 0 1 7 7 0 8 -3 -5 2 -0 2 -3 -10 -8 -3 -2 5 3 -1 -6 -3 -1 2 -4 2 -2 -4 -6 2
-1 -2 9 -2 -1 -3 4 34 10 15 4 4 6 -1 -1 3 1 -0 1 1 5 8 4 6 -2 -2 -2 1 2 -3 -3 -3 -3 -2 -2 -3 -3 -1 0 -3 -4 2 1 0 1 -5 -1
-4 2 -4 -2 -1 -4 4 55 -6 14 -10 -1 -3 -0 2 2 2 1 -1 1 0 3 6 2 5 -6 -2 -0 2 -3 1 1 -0 -3 -3 -2 -2 -1 -1 1 3 -2 -1 0 3 5 -3
-2 0 3 1 -3 -2 5 -1 2 2 5 -4 -1 -1 1 -0 -1 -1 0 3 0 7 2 3 4 -1 -2 -1 -0 -0 -6 6 0 1 2 -1 -1 -5 -1 0 -0 -1 -2 -1 -2 4 4
-0 7 0 1 -7 -2 -2 4 -4 0 -5 -2 1 -0 -2 2 -0 3 2 1 4 5 4 3 0 7 -1 -2 -3 1 0 -3 -3 1 -2 -1 -2 -3 -5 -1 -3 3 -1 -2 -0 2 -1
-3 -3 -1 5 -2 -2 4 5 -0 -7 -4 2 -1 1 0 1 -1 2 1 8 8 3 2 1 -3 -3 -4 -1 -2 -1 -0 -3 -1 -1 -1 2 -1 1 -1 -3 3 -3 1 2 1 2 -0
-2 -6 -0 4 -3 1 -1 7 5 -2 -3 -1 1 2 0 -2 1 3 0 -0 10 6 -0 7 9 2 4 -1 -1 -1 2 3 1 -3 -2 -2 7 1 -3 11 1 -1 1 -0 -0 -0 -1
Height
5713 5713 5714 5716 5717 5718 5718 5718 5718 5719 5718 5717 5716 5716 5716 5715 5716 5715 5714 5713 5712 5712 5711 5710 5709 5709 5709 5710 5714 5713 5716 5718 5721 5722 5723 5726 5727 5729 5733 5736 5738 5743 5749 5755 5762 5765 5768
5706 5706 5706 5707 5708 5709 5710 5710 5710 5711 5712 5711 5710 5709 5708 5708 5708 5707 5706 5705 5704 5703 5703 5702 5701 5701 5701 5703 5703 5704 5707 5707 5708 5710 5712 5714 5716 5719 5723 5726 5728 5736 5738 5745 5753 5757 5760
5696 5697 5697 5698 5699 5700 5701 5701 5702 5703 5703 5703 5703 5702 5701 5699 5700 5699 5699 5697 5696 5695 5695 5694 5692 5690 5691 5695 5692 5694 5694 5695 5695 5697 5699 5702 5703 5706 5710 5714 5718 5724 5726 5732 5742 5749 5751
5685 5686 5687 5688 5688 5689 5690 5692 5693 5694 5694 5695 5695 5694 5694 5692 5692 5691 5691 5688 5687 5685 5685 5684 5682 5680 5681 5682 5682 5682 5682 5681 5682 5684 5686 5687 5689 5693 5697 5701 5708 5714 5718 5724 5738 5740 5745
5675 5675 5675 5676 5677 5678 5678 5680 5682 5684 5685 5686 5686 5687 5686 5685 5683 5683 5682 5679 5678 5676 5675 5673 5671 5669 5669 5671 5671 5668 5670 5670 5669 5670 5672 5672 5674 5679 5684 5689 5696 5703 5709 5719 5726 5732 5737
5664 5663 5663 5663 5663 5665 5667 5669 5671 5672 5674 5675 5677 5677 5677 5677 5676 5675 5674 5671 5668 5666 5665 5663 5661 5660 5659 5659 5658 5657 5656 5656 5656 5655 5657 5657 5659 5665 5673 5677 5686 5695 5700 5709 5717 5727 5729
5649 5648 5648 5648 5649 5650 5652 5655 5657 5661 5662 5664 5667 5667 5668 5668 5668 5667 5665 5662 5660 5656 5654 5653 5651 5650 5648 5647 5647 5645 5643 5642 5642 5642 5643 5645 5647 5657 5667 5672 5681 5685 5692 5699 5709 5715 5720
5631 5630 5628 5629 5631 5633 5637 5639 5643 5648 5650 5654 5656 5657 5658 5659 5659 5658 5656 5653 5648 5645 5643 5642 5642 5639 5636 5635 5634 5631 5628 5628 5629 5631 5630 5629 5635 5654 5653 5657 5662 5672 5680 5690 5701 5708 5713
5611 5608 5607 5607 5609 5615 5620 5624 5628 5633 5638 5641 5644 5647 5648 5650 5650 5650 5648 5644 5639 5634 5631 5632 5632 5629 5625 5621 5620 5616 5613 5613 5615 5616 5616 5617 5638 5632 5635 5643 5649 5660 5671 5685 5695 5703 5707
5579 5581 5583 5586 5588 5596 5602 5609 5614 5620 5625 5629 5634 5637 5639 5641 5643 5641 5639 5635 5631 5625 5620 5622 5620 5617 5610 5606 5605 5601 5599 5600 5600 5604 5602 5600 5616 5616 5624 5631 5642 5651 5671 5679 5688 5692 5698
5549 5550 5555 5559 5566 5574 5582 5591 5599 5606 5612 5617 5624 5627 5629 5632 5633 5633 5631 5626 5622 5616 5611 5611 5606 5601 5597 5594 5591 5590 5589 5584 5587 5589 5588 5595 5600 5605 5607 5624 5634 5650 5662 5670 5677 5682 5692
5519 5519 5525 5533 5542 5554 5562 5572 5582 5593 5600 5606 5613 5618 5620 5622 5624 5624 5623 5618 5614 5611 5603 5600 5596 5590 5586 5583 5578 5576 5576 5575 5576 5576 5576 5580 5583 5588 5595 5606 5621 5647 5653 5666 5672 5681 5681
5494 5494 5501 5512 5526 5541 5547 5555 5567 5579 5589 5596 5603 5608 5612 5614 5616 5616 5615 5611 5608 5603 5599 5593 5587 5580 5575 5571 5569 5565 5564 5566 5566 5567 5568 5572 5577 5581 5585 5594 5609 5629 5644 5650 5658 5657 5665
5472 5475 5482 5494 5511 5525 5535 5546 5558 5568 5578 5587 5594 5599 5603 5605 5608 5608 5606 5603 5600 5595 5590 5585 5578 5571 5564 5560 5557 5558 5558 5559 5560 5563 5566 5568 5573 5577 5584 5592 5604 5620 5638 5646 5655 5662 5665
5458 5461 5469 5483 5496 5511 5523 5535 5546 5557 5567 5576 5583 5590 5595 5595 5600 5601 5600 5597 5593 5589 5585 5578 5571 5564 5556 5551 5552 5553 5555 5556 5560 5562 5563 5568 5572 5578 5586 5597 5608 5618 5625 5639 5655 5660 5667
5447 5451 5461 5474 5487 5502 5513 5523 5535 5548 5558 5566 5574 5582 5588 5587 5592 5593 5593 5590 5587 5584 5579 5573 5568 5561 5553 5549 5549 5550 5553 5558 5558 5559 5564 5571 5577 5582 5587 5596 5608 5621 5633 5641 5651 5657 5664
5440 5446 5455 5468 5483 5495 5505 5516 5530 5543 5550 5557 5567 5574 5581 5581 5585 5586 5587 5585 5582 5579 5575 5572 5566 5561 5555 5552 5551 5552 5557 5559 5560 5562 5566 5572 5579 5588 5593 5598 5606 5618 5627 5641 5646 5655 5661
5436 5443 5453 5466 5482 5488 5499 5510 5523 5528 5540 5549 5559 5566 5573 5575 5579 5581 5580 5579 5578 5576 5572 5570 5567 5563 5558 5555 5554 5554 5557 5559 5562 5567 5572 5581 5587 5593 5598 5606 5613 5623 5631 5637 5648 5653 5660
5432 5439 5449 5459 5468 5483 5494 5503 5516 5526 5535 5544 5553 5559 5564 5569 5573 5574 5574 5575 5574 5573 5570 5570 5567 5564 5562 5562 5561 5560 5562 5565 5566 5572 5581 5588 5591 5599 5600 5603 5610 5618 5629 5641 5645 5653 5660
5428 5436 5445 5456 5467 5480 5491 5499 5509 5521 5529 5538 5547 5552 5558 5562 5566 5568 5569 5571 5572 5570 5569 5568 5568 5567 5565 5566 5565 5566 5568 5571 5571 5578 5584 5589 5597 5599 5601 5609 5618 5622 5631 5641 5648 5655 5660
5430 5438 5446 5456 5465 5476 5487 5496 5505 5514 5523 5532 5539 5548 5554 5558 5561 5562 5565 5567 5568 5567 5566 5568 5569 5570 5568 5568 5569 5571 5573 5574 5576 5581 5583 5589 5591 5594 5604 5614 5619 5625 5632 5639 5646 5655 5660
5428 5435 5445 5454 5461 5474 5483 5494 5502 5504 5515 5526 5536 5543 5548 5553 5554 5558 5560 5564 5564 5564 5563 5567 5568 5569 5570 5570 5571 5574 5578 5580 5582 5586 5590 5594 5598 5602 5608 5614 5621 5629 5636 5642 5648 5652 5658
5422 5430 5443 5449 5460 5469 5480 5489 5497 5502 5512 5521 5532 5538 5543 5547 5550 5553 5555 5558 5560 5560 5561 5564 5565 5567 5569 5570 5573 5575 5579 5582 5585 5589 5593 5597 5603 5607 5612 5618 5624 5631 5635 5640 5645 5650 5657
5418 5428 5440 5448 5457 5466 5476 5486 5490 5498 5507 5518 5526 5533 5538 5542 5545 5548 5551 5553 5556 5556 5556 5559 5562 5565 5568 5569 5573 5575 5580 5583 5587 5590 5595 5600 5605 5610 5615 5619 5624 5628 5633 5638 5643 5645 5651
5418 5427 5436 5445 5454 5463 5473 5481 5484 5497 5504 5513 5522 5528 5533 5538 5541 5545 5547 5549 5551 5552 5552 5554 5559 5560 5564 5568 5571 5575 5580 5584 5588 5592 5596 5600 5605 5610 5614 5618 5623 5627 5631 5635 5639 5644 5647
5414 5423 5432 5440 5450 5459 5469 5474 5484 5493 5501 5509 5517 5524 5529 5534 5537 5541 5543 5546 5547 5547 5548 5550 5555 5559 5564 5568 5569 5573 5578 5583 5588 5592 5596 5599 5603 5609 5613 5615 5619 5623 5627 5631 5636 5640 5643
5408 5418 5427 5436 5445 5456 5465 5475 5482 5491 5497 5505 5513 5519 5525 5530 5534 5537 5540 5543 5544 5544 5546 5548 5553 5557 5561 5566 5570 5574 5577 5582 5587 5592 5596 5600 5604 5606 5609 5613 5617 5621 5623 5627 5632 5638 5636
5404 5413 5423 5435 5442 5452 5463 5471 5478 5486 5494 5502 5510 5516 5521 5526 5530 5533 5536 5539 5540 5543 5546 5549 5553 5555 5560 5564 5569 5573 5577 5582 5586 5590 5594 5599 5603 5607 5610 5613 5617 5618 5621 5625 5628 5629 5631
5400 5408 5419 5430 5439 5448 5459 5467 5476 5484 5491 5499 5507 5512 5517 5522 5527 5530 5533 5538 5539 5541 5544 5548 5552 5555 5560 5563 5568 5571 5577 5582 5585 5587 5593 5598 5602 5605 5609 5614 5614 5616 5618 5621 5623 5625 5628